When you browse on this site, cookies collect data to enhance your experience and personalize the content and advertising you see.
Visit our Privacy Policy to learn more. By continuing to use the site, you agree to this use of cookies and data.
  • Em Portugal
  • Lista de países
  • Para 7 dias
  • Temperatura da água
  • Mapas de satélite
  • Mapa do tempo
  • Widgets de tempo
  • user-avatar
    Iniciar Sessão

    Previsão horária em Kramatorsk

    Hoje, 13 Dezembro, Quinta-feira

    Tempo Temperatura Precipitação Vento Pressão Humidade
    00:00 -1°C° 0 mm 5 m/s 749 mmHg 87%
    01:00 -1°C° 0 mm 5 m/s 750 mmHg 87%
    02:00 -1°C° 0 mm 4 m/s 750 mmHg 87%
    03:00 -1°C° 0 mm 4 m/s 751 mmHg 88%
    04:00 -1°C° 0 mm 4 m/s 751 mmHg 88%
    05:00 -1°C° 0 mm 4 m/s 752 mmHg 88%
    06:00 -1°C° 0 mm 4 m/s 752 mmHg 88%
    07:00 -2°C° 0 mm 4 m/s 753 mmHg 88%
    08:00 -1°C° 0 mm 3 m/s 753 mmHg 89%
    09:00 -1°C° 0 mm 3 m/s 753 mmHg 89%
    10:00 0°C° 0 mm 3 m/s 754 mmHg 87%
    11:00 -1°C° 0 mm 4 m/s 754 mmHg 84%
    12:00 0°C° 0 mm 4 m/s 755 mmHg 82%
    13:00 0°C° 0 mm 4 m/s 755 mmHg 81%
    14:00 0°C° 0 mm 4 m/s 755 mmHg 81%
    15:00 0°C° 0 mm 4 m/s 756 mmHg 80%
    16:00 +1°C° 0 mm 3 m/s 756 mmHg 81%
    17:00 +1°C° 0 mm 3 m/s 757 mmHg 82%
    18:00 +2°C° 0 mm 2 m/s 757 mmHg 83%
    19:00 +1°C° 0 mm 2 m/s 757 mmHg 83%
    20:00 +1°C° 0 mm 2 m/s 757 mmHg 82%
    21:00 +1°C° 0 mm 2 m/s 758 mmHg 82%
    22:00 +1°C° 0 mm 2 m/s 758 mmHg 83%
    23:00 -1°C° 0 mm 2 m/s 758 mmHg 83%

    Amanhã, 14 Dezembro, Sexta-feira

    Tempo Temperatura Precipitação Vento Pressão Humidade
    00:00 -1°C° 0 mm 2 m/s 758 mmHg 84%
    01:00 -1°C° 0 mm 2 m/s 758 mmHg 85%
    02:00 -1°C° 0 mm 2 m/s 758 mmHg 85%
    03:00 -1°C° 0 mm 2 m/s 758 mmHg 86%
    04:00 -1°C° 0 mm 2 m/s 759 mmHg 87%
    05:00 -1°C° 0 mm 2 m/s 759 mmHg 87%
    06:00 -1°C° 0 mm 2 m/s 759 mmHg 88%
    07:00 -1°C° 0 mm 2 m/s 759 mmHg 88%
    08:00 -1°C° 0 mm 2 m/s 759 mmHg 89%
    09:00 -1°C° 0 mm 2 m/s 760 mmHg 89%
    10:00 +1°C° 0 mm 2 m/s 760 mmHg 87%
    11:00 +2°C° 0 mm 2 m/s 760 mmHg 84%
    12:00 +4°C° 0 mm 1 m/s 760 mmHg 82%
    13:00 +4°C° 0 mm 1 m/s 760 mmHg 83%
    14:00 +4°C° 0 mm 1 m/s 760 mmHg 83%
    15:00 +3°C° 0 mm 0 m/s 760 mmHg 84%
    16:00 +2°C° 0 mm 0 m/s 761 mmHg 85%
    17:00 +1°C° 0 mm 0 m/s 761 mmHg 87%
    18:00 0°C° 0 mm 0 m/s 761 mmHg 88%
    19:00 0°C° 0 mm 0 m/s 761 mmHg 88%
    20:00 0°C° 0 mm 0 m/s 761 mmHg 88%
    21:00 0°C° 0 mm 0 m/s 762 mmHg 89%
    22:00 0°C° 0 mm 0 m/s 762 mmHg 89%
    23:00 +1°C° 0 mm 1 m/s 762 mmHg 89%

    Depois de amanhã, 15 Dezembro, Sábado

    Tempo Temperatura Precipitação Vento Pressão Humidade
    00:00 +1°C° 0 mm 1 m/s 762 mmHg 89%
    01:00 +1°C° 0 mm 1 m/s 762 mmHg 89%
    02:00 0°C° 0 mm 0 m/s 763 mmHg 89%
    03:00 0°C° 0 mm 0 m/s 763 mmHg 89%
    04:00 0°C° 0 mm 0 m/s 763 mmHg 89%
    05:00 0°C° 0 mm 0 m/s 763 mmHg 89%
    06:00 -1°C° 0 mm 0 m/s 763 mmHg 89%
    07:00 -1°C° 0 mm 0 m/s 763 mmHg 89%
    08:00 -1°C° 0 mm 0 m/s 764 mmHg 89%
    09:00 -1°C° 0 mm 0 m/s 764 mmHg 89%
    10:00 0°C° 0 mm 0 m/s 764 mmHg 86%
    11:00 +1°C° 0 mm 0 m/s 764 mmHg 82%
    12:00 +3°C° 0 mm 1 m/s 765 mmHg 78%
    13:00 +3°C° 0 mm 1 m/s 765 mmHg 79%
    14:00 +3°C° 0 mm 1 m/s 765 mmHg 79%
    15:00 +3°C° 0 mm 1 m/s 765 mmHg 80%
    16:00 +2°C° 0 mm 1 m/s 765 mmHg 83%
    17:00 -1°C° 0 mm 2 m/s 765 mmHg 86%
    18:00 -2°C° 0 mm 2 m/s 766 mmHg 90%
    19:00 -2°C° 0 mm 2 m/s 766 mmHg 90%
    20:00 -2°C° 0 mm 2 m/s 766 mmHg 91%
    21:00 -3°C° 0 mm 2 m/s 766 mmHg 92%
    22:00 -3°C° 0 mm 2 m/s 766 mmHg 91%
    23:00 -3°C° 0 mm 2 m/s 766 mmHg 91%

    16 Dezembro, Domingo

    Tempo Temperatura Precipitação Vento Pressão Humidade
    00:00 -4°C° 0 mm 3 m/s 767 mmHg 90%
    01:00 -4°C° 0 mm 3 m/s 767 mmHg 89%
    02:00 -5°C° 0 mm 3 m/s 767 mmHg 89%
    03:00 -5°C° 0 mm 3 m/s 767 mmHg 88%
    04:00 -5°C° 0 mm 3 m/s 767 mmHg 87%
    05:00 -5°C° 0 mm 3 m/s 767 mmHg 87%
    06:00 -5°C° 0 mm 3 m/s 767 mmHg 87%
    07:00 -5°C° 0 mm 4 m/s 767 mmHg 86%
    08:00 -5°C° 0 mm 4 m/s 767 mmHg 85%
    09:00 -5°C° 0 mm 4 m/s 767 mmHg 85%
    10:00 -4°C° 0 mm 4 m/s 767 mmHg 82%
    11:00 -4°C° 0 mm 4 m/s 767 mmHg 80%
    12:00 -4°C° 0 mm 5 m/s 767 mmHg 77%
    13:00 -4°C° 0 mm 5 m/s 766 mmHg 77%
    14:00 -4°C° 0 mm 5 m/s 766 mmHg 77%
    15:00 -4°C° 0 mm 5 m/s 766 mmHg 76%
    16:00 -4°C° 0 mm 5 m/s 766 mmHg 78%
    17:00 -5°C° 0 mm 5 m/s 766 mmHg 80%
    18:00 -5°C° 0 mm 5 m/s 766 mmHg 83%
    19:00 -5°C° 0 mm 5 m/s 766 mmHg 83%
    20:00 -5°C° 0 mm 5 m/s 766 mmHg 83%
    21:00 -6°C° 0 mm 5 m/s 766 mmHg 83%
    22:00 -6°C° 0 mm 5 m/s 766 mmHg 82%
    23:00 -6°C° 0 mm 5 m/s 766 mmHg 81%

    17 Dezembro, Segunda-feira

    Tempo Temperatura Precipitação Vento Pressão Humidade
    00:00 -6°C° 0 mm 5 m/s 765 mmHg 80%
    01:00 -6°C° 0 mm 5 m/s 765 mmHg 78%
    02:00 -6°C° 0 mm 5 m/s 765 mmHg 76%
    03:00 -7°C° 0 mm 5 m/s 765 mmHg 74%
    04:00 -8°C° 0 mm 6 m/s 765 mmHg 72%
    05:00 -8°C° 0 mm 6 m/s 765 mmHg 70%
    06:00 -8°C° 0 mm 6 m/s 764 mmHg 68%
    07:00 -8°C° 0 mm 6 m/s 764 mmHg 66%
    08:00 -9°C° 0 mm 6 m/s 764 mmHg 64%
    09:00 -9°C° 0 mm 6 m/s 764 mmHg 62%
    10:00 -8°C° 0 mm 6 m/s 764 mmHg 59%
    11:00 -6°C° 0 mm 6 m/s 764 mmHg 56%
    12:00 -6°C° 0 mm 6 m/s 764 mmHg 53%
    13:00 -6°C° 0 mm 6 m/s 764 mmHg 54%
    14:00 -6°C° 0 mm 6 m/s 764 mmHg 54%
    15:00 -6°C° 0 mm 6 m/s 764 mmHg 54%
    16:00 -6°C° 0 mm 6 m/s 764 mmHg 56%
    17:00 -8°C° 0 mm 6 m/s 764 mmHg 58%
    18:00 -8°C° 0 mm 6 m/s 764 mmHg 61%
    19:00 -9°C° 0 mm 6 m/s 764 mmHg 63%
    20:00 -9°C° 0 mm 6 m/s 764 mmHg 65%
    21:00 -9°C° 0 mm 6 m/s 764 mmHg 68%
    22:00 -9°C° 0 mm 6 m/s 764 mmHg 70%
    23:00 -9°C° 0 mm 6 m/s 764 mmHg 72%

    18 Dezembro, Terça-feira

    Tempo Temperatura Precipitação Vento Pressão Humidade
    00:00 -10°C° 0 mm 6 m/s 764 mmHg 74%
    01:00 -10°C° 0 mm 6 m/s 764 mmHg 75%
    02:00 -10°C° 0 mm 6 m/s 764 mmHg 76%
    03:00 -10°C° 0 mm 6 m/s 764 mmHg 77%
    04:00 -10°C° 0 mm 6 m/s 764 mmHg 78%
    05:00 -10°C° 0 mm 5 m/s 764 mmHg 79%
    06:00 -10°C° 0 mm 5 m/s 764 mmHg 80%
    07:00 -10°C° 0 mm 5 m/s 764 mmHg 80%
    08:00 -10°C° 0 mm 5 m/s 764 mmHg 81%
    09:00 -10°C° 0 mm 5 m/s 764 mmHg 81%
    10:00 -10°C° 0 mm 6 m/s 764 mmHg 78%
    11:00 -9°C° 0 mm 6 m/s 764 mmHg 76%
    12:00 -9°C° 0 mm 6 m/s 764 mmHg 73%
    13:00 -9°C° 0 mm 6 m/s 764 mmHg 72%
    14:00 -8°C° 0 mm 6 m/s 764 mmHg 71%
    15:00 -8°C° 0 mm 6 m/s 764 mmHg 71%
    16:00 -8°C° 0 mm 6 m/s 764 mmHg 72%
    17:00 -9°C° 0 mm 6 m/s 764 mmHg 73%
    18:00 -9°C° 0 mm 6 m/s 764 mmHg 74%
    19:00 -9°C° 0 mm 6 m/s 764 mmHg 76%
    20:00 -8°C° 0 mm 6 m/s 764 mmHg 77%
    21:00 -8°C° 0 mm 6 m/s 764 mmHg 78%
    22:00 -7°C° 0 mm 5 m/s 764 mmHg 78%
    23:00 -7°C° 0 mm 5 m/s 764 mmHg 79%
    Mostrar mais